TimeMDT,TemperatureF,Dew PointF,Humidity,Sea Level PressureIn,VisibilityMPH,Wind Direction,Wind SpeedMPH,Gust SpeedMPH,PrecipitationIn,Events,Conditions,WindDirDegrees,DateUTC
12:53 AM,64.9,55.9,73,29.91,10.0,Calm,Calm,-,N/A,,Mostly Cloudy,0,2013-08-23 06:53:00
1:53 AM,68.0,55.0,63,29.89,10.0,South,3.5,-,N/A,,Mostly Cloudy,190,2013-08-23 07:53:00
2:53 AM,70.0,50.0,49,29.85,10.0,North,-9999.0,-,N/A,,Clear,0,2013-08-23 08:53:00
3:53 AM,68.0,50.0,52,29.84,10.0,WSW,8.1,-,N/A,,Partly Cloudy,240,2013-08-23 09:53:00
4:53 AM,66.0,51.1,59,29.84,10.0,SSW,10.4,-,N/A,,Scattered Clouds,210,2013-08-23 10:53:00
5:53 AM,66.0,51.1,59,29.85,10.0,SW,12.7,-,N/A,,Mostly Cloudy,220,2013-08-23 11:53:00
6:53 AM,66.0,51.1,59,29.89,10.0,SSW,12.7,-,N/A,,Clear,210,2013-08-23 12:53:00
7:53 AM,70.0,51.1,51,29.88,10.0,SSW,12.7,-,N/A,,Clear,210,2013-08-23 13:53:00
8:53 AM,73.0,51.1,46,29.88,10.0,SW,13.8,21.9,N/A,,Clear,220,2013-08-23 14:53:00
9:53 AM,77.0,50.0,39,29.87,10.0,SSW,15.0,-,N/A,,Clear,210,2013-08-23 15:53:00
10:53 AM,79.0,48.9,35,29.86,10.0,SW,8.1,-,N/A,,Clear,220,2013-08-23 16:53:00
11:53 AM,82.9,48.9,31,29.84,10.0,South,8.1,16.1,N/A,,Clear,190,2013-08-23 17:53:00
12:53 PM,84.9,46.9,27,29.83,10.0,WSW,8.1,-,N/A,,Clear,250,2013-08-23 18:53:00
1:53 PM,87.1,46.9,25,29.78,10.0,South,8.1,-,N/A,,Partly Cloudy,170,2013-08-23 19:53:00
2:53 PM,88.0,46.0,23,29.75,10.0,SW,8.1,-,N/A,,Mostly Cloudy,220,2013-08-23 20:53:00
3:53 PM,88.0,45.0,22,29.73,10.0,SSE,10.4,-,N/A,,Partly Cloudy,160,2013-08-23 21:53:00
4:53 PM,89.1,43.0,20,29.71,10.0,South,4.6,-,N/A,,Clear,180,2013-08-23 22:53:00
5:53 PM,84.9,46.0,26,29.71,10.0,ESE,9.2,-,N/A,,Clear,120,2013-08-23 23:53:00
6:53 PM,82.9,48.0,29,29.70,10.0,East,9.2,-,N/A,,Clear,100,2013-08-24 00:53:00
7:53 PM,81.0,48.9,33,29.71,10.0,SE,8.1,-,N/A,,Clear,130,2013-08-24 01:53:00
8:12 PM,73.4,50.0,44,29.99,10.0,South,36.8,48.3,0.00,Rain-Thunderstorm,Light Rain,190,2013-08-24 02:12:00
8:53 PM,71.1,50.0,47,29.81,10.0,South,28.8,40.3,0.00,Thunderstorm,Mostly Cloudy,190,2013-08-24 02:53:00
9:00 PM,69.8,51.8,53,30.03,10.0,South,26.5,39.1,N/A,,Mostly Cloudy,190,2013-08-24 03:00:00
9:53 PM,68.0,53.1,59,29.84,10.0,SSW,20.7,27.6,0.00,Rain,Light Rain,210,2013-08-24 03:53:00
10:53 PM,64.0,57.0,78,29.84,10.0,South,5.8,-,0.02,,Mostly Cloudy,170,2013-08-24 04:53:00
11:53 PM,64.9,54.0,68,29.83,10.0,South,8.1,-,N/A,,Clear,190,2013-08-24 05:53:00